Year,Month,Day,Hour,Minute,Value (Times are PST for windspeed in km/hr)
2010,04,02,00,00,27.40
2010,04,02,00,01,25.20
2010,04,02,00,02,19.00
2010,04,02,00,03,19.70
2010,04,02,00,04,20.90
2010,04,02,00,05,21.80
2010,04,02,00,06,19.90
2010,04,02,00,07,16.30
2010,04,02,00,08,16.50
2010,04,02,00,09,13.90
2010,04,02,00,10,15.60
2010,04,02,00,11,14.30
2010,04,02,00,12,13.00
2010,04,02,00,13,17.90
2010,04,02,00,14,27.20
2010,04,02,00,15,26.60
2010,04,02,00,16,23.70
2010,04,02,00,17,26.20
2010,04,02,00,18,22.60
2010,04,02,00,19,25.00
2010,04,02,00,20,22.30
2010,04,02,00,21,18.80
2010,04,02,00,22,19.40
2010,04,02,00,23,22.00
2010,04,02,00,24,25.60
2010,04,02,00,25,22.50
2010,04,02,00,26,16.70
2010,04,02,00,27,25.80
2010,04,02,00,28,19.30
2010,04,02,00,29,27.10
2010,04,02,00,30,24.10
2010,04,02,00,31,22.80
2010,04,02,00,32,26.20
2010,04,02,00,33,25.40
2010,04,02,00,34,24.20
2010,04,02,00,35,19.40
2010,04,02,00,36,21.50
2010,04,02,00,37,26.80
2010,04,02,00,38,25.40
2010,04,02,00,39,26.20
2010,04,02,00,40,19.80
2010,04,02,00,41,21.50
2010,04,02,00,42,26.20
2010,04,02,00,43,22.30
2010,04,02,00,44,28.80
2010,04,02,00,45,31.90
2010,04,02,00,46,31.30
2010,04,02,00,47,28.30
2010,04,02,00,48,28.40
2010,04,02,00,49,25.70
2010,04,02,00,50,26.90
2010,04,02,00,51,28.60
2010,04,02,00,52,31.30
2010,04,02,00,53,29.40
2010,04,02,00,54,31.70
2010,04,02,00,55,29.90
2010,04,02,00,56,28.00
2010,04,02,00,57,27.20
2010,04,02,00,58,27.40
2010,04,02,00,59,27.30
2010,04,02,01,00,29.70
2010,04,02,01,01,22.70
2010,04,02,01,02,27.50
2010,04,02,01,03,24.90
2010,04,02,01,04,23.70
2010,04,02,01,05,30.00
2010,04,02,01,06,30.30
2010,04,02,01,07,25.30
2010,04,02,01,08,23.10
2010,04,02,01,09,28.90
2010,04,02,01,10,27.80
2010,04,02,01,11,31.20
2010,04,02,01,12,34.20
2010,04,02,01,13,27.00
2010,04,02,01,14,28.80
2010,04,02,01,15,27.90
2010,04,02,01,16,32.70
2010,04,02,01,17,24.90
2010,04,02,01,18,28.40
2010,04,02,01,19,30.40
2010,04,02,01,20,24.10
2010,04,02,01,21,26.10
2010,04,02,01,22,21.70
2010,04,02,01,23,25.60
2010,04,02,01,24,35.30
2010,04,02,01,25,34.30
2010,04,02,01,26,34.70
2010,04,02,01,27,30.80
2010,04,02,01,28,28.60
2010,04,02,01,29,29.20
2010,04,02,01,30,28.50
2010,04,02,01,31,31.80
2010,04,02,01,32,22.40
2010,04,02,01,33,23.70
2010,04,02,01,34,31.30
2010,04,02,01,35,28.10
2010,04,02,01,36,26.10
2010,04,02,01,37,27.60
2010,04,02,01,38,33.20
2010,04,02,01,39,27.40
2010,04,02,01,40,25.50
2010,04,02,01,41,19.40
2010,04,02,01,42,28.30
2010,04,02,01,43,27.50
2010,04,02,01,44,27.30
2010,04,02,01,45,27.50
2010,04,02,01,46,25.30
2010,04,02,01,47,20.30
2010,04,02,01,48,19.80
2010,04,02,01,49,23.90
2010,04,02,01,50,22.80
2010,04,02,01,51,21.20
2010,04,02,01,52,24.80
2010,04,02,01,53,23.90
2010,04,02,01,54,24.30
2010,04,02,01,55,19.40
2010,04,02,01,56,26.10
2010,04,02,01,57,23.60
2010,04,02,01,58,23.30
2010,04,02,01,59,24.80
2010,04,02,02,00,26.60
2010,04,02,02,01,19.90
2010,04,02,02,02,24.30
2010,04,02,02,03,23.40
2010,04,02,02,04,20.50
2010,04,02,02,05,20.20
2010,04,02,02,06,19.20
2010,04,02,02,07,21.90
2010,04,02,02,08,21.00
2010,04,02,02,09,19.30
2010,04,02,02,10,18.10
2010,04,02,02,11,23.90
2010,04,02,02,12,21.40
2010,04,02,02,13,23.80
2010,04,02,02,14,17.90
2010,04,02,02,15,17.50
2010,04,02,02,16,24.40
2010,04,02,02,17,27.30
2010,04,02,02,18,27.40
2010,04,02,02,19,22.00
2010,04,02,02,20,22.00
2010,04,02,02,21,21.60
2010,04,02,02,22,20.30
2010,04,02,02,23,14.70
2010,04,02,02,24,22.50
2010,04,02,02,25,25.80
2010,04,02,02,26,31.60
2010,04,02,02,27,25.60
2010,04,02,02,28,23.20
2010,04,02,02,29,19.00
2010,04,02,02,30,26.70
2010,04,02,02,31,27.60
2010,04,02,02,32,25.30
2010,04,02,02,33,26.80
2010,04,02,02,34,22.60
2010,04,02,02,35,22.40
2010,04,02,02,36,26.10
2010,04,02,02,37,22.10
2010,04,02,02,38,18.20
2010,04,02,02,39,23.30
2010,04,02,02,40,16.20
2010,04,02,02,41,13.50
2010,04,02,02,42,24.10
2010,04,02,02,43,18.30
2010,04,02,02,44,18.80
2010,04,02,02,45,21.20
2010,04,02,02,46,22.80
2010,04,02,02,47,23.20
2010,04,02,02,48,22.00
2010,04,02,02,49,21.10
2010,04,02,02,50,20.30
2010,04,02,02,51,17.20
2010,04,02,02,52,17.00
2010,04,02,02,53,18.40
2010,04,02,02,54,23.20
2010,04,02,02,55,18.10
2010,04,02,02,56,24.50
2010,04,02,02,57,19.40
2010,04,02,02,58,17.70
2010,04,02,02,59,21.00
2010,04,02,03,00,21.30
2010,04,02,03,01,21.50
2010,04,02,03,02,24.90
2010,04,02,03,03,22.30
2010,04,02,03,04,16.40
2010,04,02,03,05,17.80
2010,04,02,03,06,16.40
2010,04,02,03,07,14.10
2010,04,02,03,08,17.90
2010,04,02,03,09,30.20
2010,04,02,03,10,20.90
2010,04,02,03,11,25.80
2010,04,02,03,12,24.10
2010,04,02,03,13,21.90
2010,04,02,03,14,23.30
2010,04,02,03,15,15.20
2010,04,02,03,16,18.30
2010,04,02,03,17,19.20
2010,04,02,03,18,16.40
2010,04,02,03,19,22.10
2010,04,02,03,20,16.40
2010,04,02,03,21,25.50
2010,04,02,03,22,23.70
2010,04,02,03,23,27.40
2010,04,02,03,24,22.40
2010,04,02,03,25,23.40
2010,04,02,03,26,20.50
2010,04,02,03,27,17.40
2010,04,02,03,28,22.50
2010,04,02,03,29,19.40
2010,04,02,03,30,19.00
2010,04,02,03,31,17.90
2010,04,02,03,32,20.20
2010,04,02,03,33,22.30
2010,04,02,03,34,20.60
2010,04,02,03,35,28.20
2010,04,02,03,36,19.40
2010,04,02,03,37,23.80
2010,04,02,03,38,23.80
2010,04,02,03,39,25.80
2010,04,02,03,40,21.80
2010,04,02,03,41,23.70
2010,04,02,03,42,28.00
2010,04,02,03,43,23.10
2010,04,02,03,44,24.90
2010,04,02,03,45,24.80
2010,04,02,03,46,27.20
2010,04,02,03,47,20.40
2010,04,02,03,48,23.10
2010,04,02,03,49,29.90
2010,04,02,03,50,26.60
2010,04,02,03,51,19.90
2010,04,02,03,52,18.70
2010,04,02,03,53,20.80
2010,04,02,03,54,16.70
2010,04,02,03,55,19.40
2010,04,02,03,56,19.70
2010,04,02,03,57,19.70
2010,04,02,03,58,21.40
2010,04,02,03,59,25.30
2010,04,02,04,00,22.80
2010,04,02,04,01,25.50
2010,04,02,04,02,24.10
2010,04,02,04,03,20.90
2010,04,02,04,04,26.60
2010,04,02,04,05,28.30
2010,04,02,04,06,23.30
2010,04,02,04,07,20.60
2010,04,02,04,08,21.50
2010,04,02,04,09,21.10
2010,04,02,04,10,23.70
2010,04,02,04,11,23.00
2010,04,02,04,12,23.20
2010,04,02,04,13,24.40
2010,04,02,04,14,20.40
2010,04,02,04,15,23.60
2010,04,02,04,16,24.50
2010,04,02,04,17,29.40
2010,04,02,04,18,25.60
2010,04,02,04,19,27.60
2010,04,02,04,20,23.10
2010,04,02,04,21,20.80
2010,04,02,04,22,26.40
2010,04,02,04,23,19.80
2010,04,02,04,24,22.30
2010,04,02,04,25,36.90
2010,04,02,04,26,26.10
2010,04,02,04,27,27.10
2010,04,02,04,28,21.50
2010,04,02,04,29,31.60
2010,04,02,04,30,25.40
2010,04,02,04,31,22.60
2010,04,02,04,32,29.90
2010,04,02,04,33,21.10
2010,04,02,04,34,26.10
2010,04,02,04,35,23.00
2010,04,02,04,36,24.00
2010,04,02,04,37,20.30
2010,04,02,04,38,27.00
2010,04,02,04,39,35.60
2010,04,02,04,40,27.80
2010,04,02,04,41,25.60
2010,04,02,04,42,31.90
2010,04,02,04,43,27.50
2010,04,02,04,44,29.70
2010,04,02,04,45,30.40
2010,04,02,04,46,25.70
2010,04,02,04,47,25.80
2010,04,02,04,48,31.70
2010,04,02,04,49,24.10
2010,04,02,04,50,29.10
2010,04,02,04,51,26.70
2010,04,02,04,52,30.00
2010,04,02,04,53,27.00
2010,04,02,04,54,26.00
2010,04,02,04,55,31.30
2010,04,02,04,56,23.90
2010,04,02,04,57,26.10
2010,04,02,04,58,32.60
2010,04,02,04,59,30.80
2010,04,02,05,00,27.40
2010,04,02,05,01,24.50
2010,04,02,05,02,20.90
2010,04,02,05,03,27.60
2010,04,02,05,04,31.70
2010,04,02,05,05,28.50
2010,04,02,05,06,26.60
2010,04,02,05,07,23.30
2010,04,02,05,08,32.40
2010,04,02,05,09,33.10
2010,04,02,05,10,23.40
2010,04,02,05,11,28.50
2010,04,02,05,12,30.20
2010,04,02,05,13,33.30
2010,04,02,05,14,36.40
2010,04,02,05,15,29.90
2010,04,02,05,16,28.20
2010,04,02,05,17,22.70
2010,04,02,05,18,26.00
2010,04,02,05,19,24.90
2010,04,02,05,20,26.50
2010,04,02,05,21,22.40
2010,04,02,05,22,23.10
2010,04,02,05,23,26.60
2010,04,02,05,24,20.60
2010,04,02,05,25,23.60
2010,04,02,05,26,21.40
2010,04,02,05,27,24.90
2010,04,02,05,28,21.90
2010,04,02,05,29,16.40
2010,04,02,05,30,20.00
2010,04,02,05,31,23.90
2010,04,02,05,32,21.70
2010,04,02,05,33,22.00
2010,04,02,05,34,22.40
2010,04,02,05,35,24.10
2010,04,02,05,36,19.30
2010,04,02,05,37,20.90
2010,04,02,05,38,23.10
2010,04,02,05,39,22.00
2010,04,02,05,40,22.60
2010,04,02,05,41,23.40
2010,04,02,05,42,25.70
2010,04,02,05,43,24.90
2010,04,02,05,44,24.30
2010,04,02,05,45,20.90
2010,04,02,05,46,24.10
2010,04,02,05,47,21.40
2010,04,02,05,48,22.90
2010,04,02,05,49,23.50
2010,04,02,05,50,22.60
2010,04,02,05,51,27.80
2010,04,02,05,52,24.20
2010,04,02,05,53,23.20
2010,04,02,05,54,20.30
2010,04,02,05,55,22.70
2010,04,02,05,56,21.40
2010,04,02,05,57,24.10
2010,04,02,05,58,21.80
2010,04,02,05,59,23.90
2010,04,02,06,00,21.20
2010,04,02,06,01,24.60
2010,04,02,06,02,20.60
2010,04,02,06,03,20.20
2010,04,02,06,04,19.40
2010,04,02,06,05,28.40
2010,04,02,06,06,27.20
2010,04,02,06,07,30.60
2010,04,02,06,08,28.00
2010,04,02,06,09,25.10
2010,04,02,06,10,27.40
2010,04,02,06,11,23.70
2010,04,02,06,12,23.60
2010,04,02,06,13,22.00
2010,04,02,06,14,22.30
2010,04,02,06,15,23.40
2010,04,02,06,16,21.90
2010,04,02,06,17,20.90
2010,04,02,06,18,33.90
2010,04,02,06,19,31.00
2010,04,02,06,20,24.10
2010,04,02,06,21,21.80
2010,04,02,06,22,30.60
2010,04,02,06,23,23.20
2010,04,02,06,24,26.00
2010,04,02,06,25,25.70
2010,04,02,06,26,29.00
2010,04,02,06,27,25.00
2010,04,02,06,28,28.40
2010,04,02,06,29,39.70
2010,04,02,06,30,38.00
2010,04,02,06,31,38.70
2010,04,02,06,32,37.60
2010,04,02,06,33,43.80
2010,04,02,06,34,30.60
2010,04,02,06,35,34.50
2010,04,02,06,36,29.90
2010,04,02,06,37,32.50
2010,04,02,06,38,28.60
2010,04,02,06,39,38.60
2010,04,02,06,40,35.00
2010,04,02,06,41,41.70
2010,04,02,06,42,39.70
2010,04,02,06,43,33.30
2010,04,02,06,44,25.40
2010,04,02,06,45,38.20
2010,04,02,06,46,39.50
2010,04,02,06,47,28.30
2010,04,02,06,48,38.60
2010,04,02,06,49,37.80
2010,04,02,06,50,39.10
2010,04,02,06,51,34.20
2010,04,02,06,52,36.10
2010,04,02,06,53,41.00
2010,04,02,06,54,46.00
2010,04,02,06,55,36.40
2010,04,02,06,56,33.60
2010,04,02,06,57,44.60
2010,04,02,06,58,35.60
2010,04,02,06,59,41.00
2010,04,02,07,00,35.20
2010,04,02,07,01,38.40
2010,04,02,07,02,39.10
2010,04,02,07,03,34.10
2010,04,02,07,04,36.90
2010,04,02,07,05,32.00
2010,04,02,07,06,40.80
2010,04,02,07,07,28.40
2010,04,02,07,08,32.00
2010,04,02,07,09,29.70
2010,04,02,07,10,25.70
2010,04,02,07,11,33.40
2010,04,02,07,12,23.70
2010,04,02,07,13,33.50
2010,04,02,07,14,28.40
2010,04,02,07,15,34.40
2010,04,02,07,16,22.40
2010,04,02,07,17,46.60
2010,04,02,07,18,36.30
2010,04,02,07,19,42.80
2010,04,02,07,20,45.70
2010,04,02,07,21,42.20
2010,04,02,07,22,27.10
2010,04,02,07,23,35.50
2010,04,02,07,24,29.10
2010,04,02,07,25,28.90
2010,04,02,07,26,31.80
2010,04,02,07,27,42.40
2010,04,02,07,28,45.10
2010,04,02,07,29,36.20
2010,04,02,07,30,42.60
2010,04,02,07,31,46.70
2010,04,02,07,32,30.40
2010,04,02,07,33,47.50
2010,04,02,07,34,44.70
2010,04,02,07,35,34.30
2010,04,02,07,36,34.50
2010,04,02,07,37,41.40
2010,04,02,07,38,45.20
2010,04,02,07,39,37.60
2010,04,02,07,40,38.70
2010,04,02,07,41,35.90
2010,04,02,07,42,49.30
2010,04,02,07,43,43.20
2010,04,02,07,44,34.00
2010,04,02,07,45,40.20
2010,04,02,07,46,37.90
2010,04,02,07,47,37.90
2010,04,02,07,48,38.70
2010,04,02,07,49,52.80
2010,04,02,07,50,47.30
2010,04,02,07,51,47.90
2010,04,02,07,52,41.80
2010,04,02,07,53,48.70
2010,04,02,07,54,48.00
2010,04,02,07,55,54.60
2010,04,02,07,56,55.20
2010,04,02,07,57,46.30
2010,04,02,07,58,48.20
2010,04,02,07,59,48.00
2010,04,02,08,00,43.20
2010,04,02,08,01,44.50
2010,04,02,08,02,49.90
2010,04,02,08,03,48.70
2010,04,02,08,04,48.90
2010,04,02,08,05,45.80
2010,04,02,08,06,43.60
2010,04,02,08,07,51.10
2010,04,02,08,08,41.90
2010,04,02,08,09,36.50
2010,04,02,08,10,44.70
2010,04,02,08,11,41.40
2010,04,02,08,12,41.40
2010,04,02,08,13,41.00
2010,04,02,08,14,37.90
2010,04,02,08,15,37.70
2010,04,02,08,16,42.60
2010,04,02,08,17,47.80
2010,04,02,08,18,49.20
2010,04,02,08,19,39.60
2010,04,02,08,20,40.10
2010,04,02,08,21,41.10
2010,04,02,08,22,31.60
2010,04,02,08,23,36.90
2010,04,02,08,24,44.10
2010,04,02,08,25,35.70
2010,04,02,08,26,54.00
2010,04,02,08,27,40.80
2010,04,02,08,28,50.10
2010,04,02,08,29,53.00
2010,04,02,08,30,47.00
2010,04,02,08,31,43.10
2010,04,02,08,32,45.90
2010,04,02,08,33,50.60
2010,04,02,08,34,35.80
2010,04,02,08,35,44.60
2010,04,02,08,36,35.00
2010,04,02,08,37,36.60
2010,04,02,08,38,44.30
2010,04,02,08,39,39.10
2010,04,02,08,40,41.50
2010,04,02,08,41,55.80
2010,04,02,08,42,51.20
2010,04,02,08,43,57.50
2010,04,02,08,44,51.90
2010,04,02,08,45,49.60
2010,04,02,08,46,46.00
2010,04,02,08,47,52.20
2010,04,02,08,48,41.60
2010,04,02,08,49,45.80
2010,04,02,08,50,46.10
2010,04,02,08,51,47.00
2010,04,02,08,52,50.20
2010,04,02,08,53,52.80
2010,04,02,08,54,49.20
2010,04,02,08,55,41.00
2010,04,02,08,56,38.60
2010,04,02,08,57,45.00
2010,04,02,08,58,46.60
2010,04,02,08,59,50.20
2010,04,02,09,00,42.70
2010,04,02,09,01,50.10
2010,04,02,09,02,58.50
2010,04,02,09,03,43.30
2010,04,02,09,04,53.10
2010,04,02,09,05,52.80
2010,04,02,09,06,48.40
2010,04,02,09,07,31.10
2010,04,02,09,08,32.00
2010,04,02,09,09,35.80
2010,04,02,09,10,45.40
2010,04,02,09,11,40.70
2010,04,02,09,12,43.30
2010,04,02,09,13,43.00
2010,04,02,09,14,42.80
2010,04,02,09,15,41.60
2010,04,02,09,16,44.50
2010,04,02,09,17,33.20
2010,04,02,09,18,38.80
2010,04,02,09,19,49.70
2010,04,02,09,20,51.50
2010,04,02,09,21,43.60
2010,04,02,09,22,47.80
2010,04,02,09,23,49.90
2010,04,02,09,24,38.10
2010,04,02,09,25,41.90
2010,04,02,09,26,44.10
2010,04,02,09,27,37.70
2010,04,02,09,28,32.70
2010,04,02,09,29,37.60
2010,04,02,09,30,41.70
2010,04,02,09,31,36.60
2010,04,02,09,32,37.10
2010,04,02,09,33,39.90
2010,04,02,09,34,37.80
2010,04,02,09,35,35.30
2010,04,02,09,36,40.20
2010,04,02,09,37,42.20
2010,04,02,09,38,40.20
2010,04,02,09,39,36.50
2010,04,02,09,40,32.00
2010,04,02,09,41,30.50
2010,04,02,09,42,40.50
2010,04,02,09,43,31.30
2010,04,02,09,44,33.30
2010,04,02,09,45,42.20
2010,04,02,09,46,35.90
2010,04,02,09,47,36.90
2010,04,02,09,48,40.80
2010,04,02,09,49,36.50
2010,04,02,09,50,40.90
2010,04,02,09,51,25.00
2010,04,02,09,52,23.30
2010,04,02,09,53,28.40
2010,04,02,09,54,35.20
2010,04,02,09,55,33.70
2010,04,02,09,56,44.00
2010,04,02,09,57,41.50
2010,04,02,09,58,48.80
2010,04,02,09,59,38.50
2010,04,02,10,00,34.60
2010,04,02,10,01,35.00
2010,04,02,10,02,36.10
2010,04,02,10,03,38.20
2010,04,02,10,04,33.60
2010,04,02,10,05,39.30
2010,04,02,10,06,34.40
2010,04,02,10,07,27.20
2010,04,02,10,08,31.80
2010,04,02,10,09,33.30
2010,04,02,10,10,35.30
2010,04,02,10,11,27.30
2010,04,02,10,12,26.90
2010,04,02,10,13,48.70
2010,04,02,10,14,42.70
2010,04,02,10,15,36.50
2010,04,02,10,16,37.20
2010,04,02,10,17,46.00
2010,04,02,10,18,42.20
2010,04,02,10,19,37.60
2010,04,02,10,20,39.60
2010,04,02,10,21,35.90
2010,04,02,10,22,34.60
2010,04,02,10,23,34.70
2010,04,02,10,24,46.50
2010,04,02,10,25,47.90
2010,04,02,10,26,44.50
2010,04,02,10,27,41.80
2010,04,02,10,28,39.20
2010,04,02,10,29,44.30
2010,04,02,10,30,41.10
2010,04,02,10,31,43.60
2010,04,02,10,32,43.80
2010,04,02,10,33,38.00
2010,04,02,10,34,35.90
2010,04,02,10,35,34.00
2010,04,02,10,36,28.30
2010,04,02,10,37,26.90
2010,04,02,10,38,26.50
2010,04,02,10,39,31.70
2010,04,02,10,40,33.50
2010,04,02,10,41,45.60
2010,04,02,10,42,35.80
2010,04,02,10,43,36.30
2010,04,02,10,44,29.30
2010,04,02,10,45,32.10
2010,04,02,10,46,35.00
2010,04,02,10,47,30.20
2010,04,02,10,48,31.10
2010,04,02,10,49,35.00
2010,04,02,10,50,31.30
2010,04,02,10,51,34.20
2010,04,02,10,52,40.40
2010,04,02,10,53,38.90
2010,04,02,10,54,31.30
2010,04,02,10,55,31.90
2010,04,02,10,56,29.10
2010,04,02,10,57,31.80
2010,04,02,10,58,29.60
2010,04,02,10,59,36.70
2010,04,02,11,00,32.70
2010,04,02,11,01,34.50
2010,04,02,11,02,29.90
2010,04,02,11,03,26.30
2010,04,02,11,04,29.20
2010,04,02,11,05,31.70
2010,04,02,11,06,36.40
2010,04,02,11,07,32.10
2010,04,02,11,08,33.30
2010,04,02,11,09,31.60
2010,04,02,11,10,38.50
2010,04,02,11,11,39.80
2010,04,02,11,12,28.20
2010,04,02,11,13,29.00
2010,04,02,11,14,34.30
2010,04,02,11,15,34.00
2010,04,02,11,16,33.10
2010,04,02,11,17,32.10
2010,04,02,11,18,30.30
2010,04,02,11,19,28.30
2010,04,02,11,20,29.00
2010,04,02,11,21,24.80
2010,04,02,11,22,23.10
2010,04,02,11,23,25.30
2010,04,02,11,24,26.10
2010,04,02,11,25,23.40
2010,04,02,11,26,22.40
2010,04,02,11,27,24.50
2010,04,02,11,28,23.30
2010,04,02,11,29,25.90
2010,04,02,11,30,19.00
2010,04,02,11,31,21.40
2010,04,02,11,32,21.50
2010,04,02,11,33,35.30
2010,04,02,11,34,29.40
2010,04,02,11,35,33.30
2010,04,02,11,36,41.60
2010,04,02,11,37,37.00
2010,04,02,11,38,39.10
2010,04,02,11,39,42.10
2010,04,02,11,40,40.80
2010,04,02,11,41,42.00
2010,04,02,11,42,34.20
2010,04,02,11,43,27.40
2010,04,02,11,44,41.80
2010,04,02,11,45,31.30
2010,04,02,11,46,32.50
2010,04,02,11,47,29.40
2010,04,02,11,48,43.40
2010,04,02,11,49,40.00
2010,04,02,11,50,39.00
2010,04,02,11,51,37.30
2010,04,02,11,52,41.80
2010,04,02,11,53,43.00
2010,04,02,11,54,42.70
2010,04,02,11,55,47.30
2010,04,02,11,56,35.00
2010,04,02,11,57,35.50
2010,04,02,11,58,32.80
2010,04,02,11,59,35.70
2010,04,02,12,00,41.80
2010,04,02,12,01,41.80
2010,04,02,12,02,38.20
2010,04,02,12,03,28.00
2010,04,02,12,04,30.70
2010,04,02,12,05,43.00
2010,04,02,12,06,42.50
2010,04,02,12,07,46.60
2010,04,02,12,08,57.40
2010,04,02,12,09,38.80
2010,04,02,12,10,33.20
2010,04,02,12,11,30.80
2010,04,02,12,12,47.00
2010,04,02,12,13,39.60
2010,04,02,12,14,37.10
2010,04,02,12,15,41.60
2010,04,02,12,16,43.80
2010,04,02,12,17,45.80
2010,04,02,12,18,34.90
2010,04,02,12,19,29.10
2010,04,02,12,20,32.50
2010,04,02,12,21,29.00
2010,04,02,12,22,30.70
2010,04,02,12,23,26.60
2010,04,02,12,24,31.60
2010,04,02,12,25,36.20
2010,04,02,12,26,40.30
2010,04,02,12,27,31.60
2010,04,02,12,28,38.90
2010,04,02,12,29,28.70
2010,04,02,12,30,27.30
2010,04,02,12,31,27.00
2010,04,02,12,32,31.10
2010,04,02,12,33,28.50
2010,04,02,12,34,27.30
2010,04,02,12,35,40.70
2010,04,02,12,36,32.30
2010,04,02,12,37,31.60
2010,04,02,12,38,27.60
2010,04,02,12,39,38.60
2010,04,02,12,40,39.40
2010,04,02,12,41,32.70
2010,04,02,12,42,29.10
2010,04,02,12,43,24.80
2010,04,02,12,44,35.30
2010,04,02,12,45,40.80
2010,04,02,12,46,39.60
2010,04,02,12,47,41.00
2010,04,02,12,48,43.60
2010,04,02,12,49,26.90
2010,04,02,12,50,31.30
2010,04,02,12,51,39.30
2010,04,02,12,52,27.30
2010,04,02,12,53,30.00
2010,04,02,12,54,27.40
2010,04,02,12,55,31.30
2010,04,02,12,56,26.40
2010,04,02,12,57,33.10
2010,04,02,12,58,33.60
2010,04,02,12,59,36.20
2010,04,02,13,00,36.20
2010,04,02,13,01,29.50
2010,04,02,13,02,35.70
2010,04,02,13,03,27.50
2010,04,02,13,04,22.90
2010,04,02,13,05,34.20
2010,04,02,13,06,35.30
2010,04,02,13,07,31.40
2010,04,02,13,08,27.30
2010,04,02,13,09,38.50
2010,04,02,13,10,40.70
2010,04,02,13,11,38.30
2010,04,02,13,12,35.00
2010,04,02,13,13,33.50
2010,04,02,13,14,26.00
2010,04,02,13,15,38.70
2010,04,02,13,16,41.80
2010,04,02,13,17,37.50
2010,04,02,13,18,37.90
2010,04,02,13,19,37.90
2010,04,02,13,20,29.60
2010,04,02,13,21,49.80
2010,04,02,13,22,40.70
2010,04,02,13,23,31.60
2010,04,02,13,24,35.70
2010,04,02,13,25,34.20
2010,04,02,13,26,48.80
2010,04,02,13,27,37.50
2010,04,02,13,28,35.20
2010,04,02,13,29,41.90
2010,04,02,13,30,39.80
2010,04,02,13,31,38.50
2010,04,02,13,32,41.40
2010,04,02,13,33,48.00
2010,04,02,13,34,32.40
2010,04,02,13,35,36.70
2010,04,02,13,36,43.80
2010,04,02,13,37,47.50
2010,04,02,13,38,38.90
2010,04,02,13,39,37.50
2010,04,02,13,40,34.20
2010,04,02,13,41,43.10
2010,04,02,13,42,36.80
2010,04,02,13,43,39.90
2010,04,02,13,44,42.80
2010,04,02,13,45,38.30
2010,04,02,13,46,38.40
2010,04,02,13,47,48.60
2010,04,02,13,48,36.70
2010,04,02,13,49,38.40
2010,04,02,13,50,27.20
2010,04,02,13,51,35.90
2010,04,02,13,52,35.80
2010,04,02,13,53,38.40
2010,04,02,13,54,41.60
2010,04,02,13,55,44.10
2010,04,02,13,56,50.40
2010,04,02,13,57,53.90
2010,04,02,13,58,47.70
2010,04,02,13,59,49.00
2010,04,02,14,00,42.60
2010,04,02,14,01,53.00
2010,04,02,14,02,50.60
2010,04,02,14,03,46.40
2010,04,02,14,04,55.70
2010,04,02,14,05,43.80
2010,04,02,14,06,46.60
2010,04,02,14,07,50.90
2010,04,02,14,08,51.90
2010,04,02,14,09,53.30
2010,04,02,14,10,44.80
2010,04,02,14,11,56.40
2010,04,02,14,12,52.80
2010,04,02,14,13,49.10
2010,04,02,14,14,42.20
2010,04,02,14,15,39.00
2010,04,02,14,16,36.50
2010,04,02,14,17,38.50
2010,04,02,14,18,32.60
2010,04,02,14,19,30.80
2010,04,02,14,20,37.70
2010,04,02,14,21,52.40
2010,04,02,14,22,42.10
2010,04,02,14,23,48.70
2010,04,02,14,24,56.30
2010,04,02,14,25,48.00
2010,04,02,14,26,41.80
2010,04,02,14,27,38.40
2010,04,02,14,28,39.00
2010,04,02,14,29,37.10
2010,04,02,14,30,38.90
2010,04,02,14,31,42.10
2010,04,02,14,32,31.00
2010,04,02,14,33,46.70
2010,04,02,14,34,48.40
2010,04,02,14,35,43.90
2010,04,02,14,36,38.00
2010,04,02,14,37,35.00
2010,04,02,14,38,46.10
2010,04,02,14,39,42.60
2010,04,02,14,40,34.00
2010,04,02,14,41,39.40
2010,04,02,14,42,52.70
2010,04,02,14,43,44.30
2010,04,02,14,44,38.30
2010,04,02,14,45,39.90
2010,04,02,14,46,45.70
2010,04,02,14,47,44.70
2010,04,02,14,48,50.40
2010,04,02,14,49,44.10
2010,04,02,14,50,38.40
2010,04,02,14,51,38.10
2010,04,02,14,52,38.10
2010,04,02,14,53,32.20
2010,04,02,14,54,34.60
2010,04,02,14,55,33.50
2010,04,02,14,56,37.10
2010,04,02,14,57,45.10
2010,04,02,14,58,25.70
2010,04,02,14,59,29.70
2010,04,02,15,00,43.30
2010,04,02,15,01,48.20
2010,04,02,15,02,53.40
2010,04,02,15,03,56.50
2010,04,02,15,04,58.40
2010,04,02,15,05,39.50
2010,04,02,15,06,45.70
2010,04,02,15,07,33.90
2010,04,02,15,08,43.50
2010,04,02,15,09,43.90
2010,04,02,15,10,49.30
2010,04,02,15,11,51.70
2010,04,02,15,12,51.90
2010,04,02,15,13,46.10
2010,04,02,15,14,39.80
2010,04,02,15,15,51.90
2010,04,02,15,16,41.30
2010,04,02,15,17,49.30
2010,04,02,15,18,50.40
2010,04,02,15,19,50.00
2010,04,02,15,20,45.30
2010,04,02,15,21,53.30
2010,04,02,15,22,47.00
2010,04,02,15,23,45.40
2010,04,02,15,24,39.20
2010,04,02,15,25,51.10
2010,04,02,15,26,46.90
2010,04,02,15,27,38.40
2010,04,02,15,28,45.80
2010,04,02,15,29,44.00
2010,04,02,15,30,45.40
2010,04,02,15,31,52.50
2010,04,02,15,32,49.10
2010,04,02,15,33,36.80
2010,04,02,15,34,41.60
2010,04,02,15,35,40.50
2010,04,02,15,36,41.10
2010,04,02,15,37,47.60
2010,04,02,15,38,48.20
2010,04,02,15,39,57.20
2010,04,02,15,40,41.80
2010,04,02,15,41,46.10
2010,04,02,15,42,34.40
2010,04,02,15,43,44.10
2010,04,02,15,44,34.60
2010,04,02,15,45,38.40
2010,04,02,15,46,31.90
2010,04,02,15,47,30.80
2010,04,02,15,48,43.40
2010,04,02,15,49,35.70
2010,04,02,15,50,46.60
2010,04,02,15,51,46.50
2010,04,02,15,52,29.70
2010,04,02,15,53,49.60
2010,04,02,15,54,32.40
2010,04,02,15,55,41.40
2010,04,02,15,56,36.70
2010,04,02,15,57,41.90
2010,04,02,15,58,40.60
2010,04,02,15,59,42.90
2010,04,02,16,00,44.60
2010,04,02,16,01,40.70
2010,04,02,16,02,38.90
2010,04,02,16,03,38.60
2010,04,02,16,04,32.50
2010,04,02,16,05,29.80
2010,04,02,16,06,27.40
2010,04,02,16,07,30.70
2010,04,02,16,08,37.30
2010,04,02,16,09,37.70
2010,04,02,16,10,37.60
2010,04,02,16,11,34.10
2010,04,02,16,12,37.40
2010,04,02,16,13,31.90
2010,04,02,16,14,46.00
2010,04,02,16,15,35.30
2010,04,02,16,16,35.00
2010,04,02,16,17,43.40
2010,04,02,16,18,49.40
2010,04,02,16,19,42.40
2010,04,02,16,20,34.40
2010,04,02,16,21,35.00
2010,04,02,16,22,38.40
2010,04,02,16,23,38.10
2010,04,02,16,24,31.30
2010,04,02,16,25,35.30
2010,04,02,16,26,42.30
2010,04,02,16,27,37.50
2010,04,02,16,28,31.10
2010,04,02,16,29,33.90
2010,04,02,16,30,40.90
2010,04,02,16,31,35.40
2010,04,02,16,32,32.70
2010,04,02,16,33,33.70
2010,04,02,16,34,34.20
2010,04,02,16,35,33.70
2010,04,02,16,36,37.00
2010,04,02,16,37,34.90
2010,04,02,16,38,37.50
2010,04,02,16,39,41.50
2010,04,02,16,40,31.80
2010,04,02,16,41,45.00
2010,04,02,16,42,36.20
2010,04,02,16,43,37.90
2010,04,02,16,44,38.40
2010,04,02,16,45,25.90
2010,04,02,16,46,33.30
2010,04,02,16,47,34.40
2010,04,02,16,48,33.10
2010,04,02,16,49,37.50
2010,04,02,16,50,31.80
2010,04,02,16,51,30.70
2010,04,02,16,52,25.20
2010,04,02,16,53,29.10
2010,04,02,16,54,29.60
2010,04,02,16,55,36.60
2010,04,02,16,56,39.00
2010,04,02,16,57,32.80
2010,04,02,16,58,32.60
2010,04,02,16,59,33.70
2010,04,02,17,00,34.10
2010,04,02,17,01,30.20
2010,04,02,17,02,30.50
2010,04,02,17,03,36.10
2010,04,02,17,04,35.30
2010,04,02,17,05,32.20
2010,04,02,17,06,27.60
2010,04,02,17,07,23.20
2010,04,02,17,08,32.10
2010,04,02,17,09,28.20
2010,04,02,17,10,32.60
2010,04,02,17,11,26.70
2010,04,02,17,12,32.20
2010,04,02,17,13,27.70
2010,04,02,17,14,29.60
2010,04,02,17,15,29.10
2010,04,02,17,16,30.20
2010,04,02,17,17,28.20
2010,04,02,17,18,24.10
2010,04,02,17,19,28.80